Location: Miles
(41.4492°N, 81.6087°W)
Time: 08:18:33
(UTC+00:00)

Vanguard 1 Rocket - Pass Details

Date: 19 September 2024
Orbit: 650 x 4218 km, 34.3° (Epoch: 05 October)

Event Time Altitude Azimuth Distance (km) Brightness Sun altitude
Rises 05:27:17 0° 185° (S) 4,225 - -47.2°
Reaches altitude 10° 05:30:55 10° 166° (SSE) 3,725 - -47.2°
Maximum altitude 05:37:16 18° 127° (SE) 3,884 - -47.1°
Exits shadow 05:41:21 16° 107° (ESE) 4,540 10.8 -47.0°
Drops below altitude 10° 05:46:16 10° 91° (E) 5,588 11.4 -46.9°
Sets 05:53:51 0° 77° (ENE) 7,337 12.3 -46.6°
